QPF
0.08 0.10 0.13 0.15 0.19 0.19 0.24 0.15 0.10 0.10 0.09 0.09 0.09 0.08 0.08 0.09 0.11 0.14 0.22 0.19 0.15 0.14 0.14 0.18 0.20 0.14 0.11 0.09 0.09 0.09 0.08 0.07 0.05 0.04 0.05 0.05 0.04 0.04 0.04 0.06 0.08 0.07 0.08
0.06 0.09 0.13 0.11 0.11 0.14 0.13 0.11 0.10 0.09 0.07 0.09 0.10 0.09 0.09 0.08 0.09 0.10 0.15 0.19 0.20 0.18 0.15 0.17 0.15 0.12 0.11 0.09 0.09 0.09 0.08 0.08 0.08 0.07 0.08 0.07 0.05 0.05 0.05 0.06 0.07 0.08 0.07
0.06 0.09 0.12 0.10 0.09 0.08 0.09 0.09 0.07 0.06 0.06 0.07 0.06 0.07 0.08 0.07 0.06 0.07 0.11 0.17 0.23 0.17 0.12 0.12 0.13 0.11 0.09 0.07 0.07 0.07 0.06 0.06 0.06 0.06 0.07 0.06 0.06 0.04 0.05 0.07 0.08 0.06 0.04
0.06 0.09 0.12 0.11 0.08 0.06 0.05 0.05 0.04 0.05 0.06 0.06 0.06 0.05 0.06 0.06 0.06 0.07 0.07 0.09 0.11 0.11 0.10 0.09 0.10 0.09 0.07 0.05 0.05 0.05 0.04 0.04 0.04 0.03 0.03 0.03 0.05 0.04 0.06 0.08 0.08 0.07 0.04
0.05 0.09 0.10 0.09 0.09 0.08 0.07 0.04 0.03 0.04 0.04 0.05 0.06 0.05 0.06 0.07 0.06 0.04 0.04 0.05 0.06 0.07 0.07 0.07 0.09 0.08 0.07 0.05 0.04 0.03 0.03 0.03 0.03 0.02 0.02 0.03 0.06 0.05 0.06 0.06 0.06 0.06 0.05
0.06 0.10 0.10 0.08 0.07 0.07 0.07 0.06 0.07 0.05 0.04 0.06 0.06 0.07 0.09 0.10 0.08 0.06 0.05 0.06 0.08 0.09 0.08 0.08 0.09 0.07 0.06 0.04 0.03 0.03 0.05 0.04 0.02 0.01 0.01 0.03 0.05 0.06 0.06 0.06 0.08 0.06 0.05
0.03 0.06 0.07 0.07 0.07 0.07 0.07 0.07 0.08 0.08 0.08 0.08 0.08 0.07 0.07 0.08 0.06 0.05 0.07 0.07 0.11 0.12 0.10 0.10 0.09 0.07 0.05 0.03 0.03 0.03 0.04 0.03 0.01 0.02 0.02 0.04 0.04 0.04 0.06 0.06 0.07 0.06 0.06
0.03 0.04 0.04 0.04 0.04 0.05 0.07 0.09 0.09 0.09 0.10 0.09 0.11 0.08 0.07 0.08 0.06 0.06 0.09 0.09 0.11 0.10 0.09 0.10 0.08 0.06 0.05 0.03 0.02 0.04 0.04 0.02 0.01 0.01 0.03 0.05 0.03 0.03 0.06 0.08 0.07 0.06 0.05
0.02 0.03 0.03 0.04 0.03 0.07 0.08 0.07 0.08 0.09 0.09 0.09 0.12 0.12 0.11 0.13 0.12 0.10 0.11 0.11 0.13 0.11 0.12 0.12 0.07 0.05 0.05 0.03 0.03 0.04 0.04 0.03 0.03 0.03 0.02 0.04 0.02 0.04 0.07 0.07 0.06 0.04 0.04
0.02 0.02 0.02 0.03 0.04 0.06 0.06 0.06 0.07 0.07 0.09 0.10 0.11 0.15 0.17 0.15 0.14 0.11 0.08 0.11 0.16 0.17 0.16 0.11 0.07 0.07 0.07 0.05 0.03 0.04 0.05 0.03 0.03 0.02 0.03 0.03 0.02 0.05 0.07 0.05 0.05 0.04 0.03
0.01 0.01 0.01 0.01 0.03 0.04 0.04 0.07 0.08 0.09 0.11 0.11 0.11 0.12 0.12 0.12 0.11 0.09 0.08 0.15 0.22 0.18 0.13 0.10 0.08 0.09 0.07 0.05 0.03 0.04 0.05 0.02 0.02 0.02 0.02 0.01 0.02 0.06 0.07 0.07 0.07 0.06 0.04
0.01 0.01 0.01 0.01 0.02 0.03 0.03 0.08 0.11 0.08 0.07 0.05 0.07 0.09 0.08 0.06 0.07 0.10 0.19 0.25 0.22 0.13 0.11 0.08 0.10 0.11 0.06 0.04 0.03 0.03 0.03 0.03 0.01 0.01 0.01 0.01 0.02 0.04 0.05 0.05 0.05 0.06 0.07
0.01 0.01 0.01 0.01 0.02 0.03 0.03 0.05 0.06 0.04 0.04 0.04 0.03 0.04 0.05 0.06 0.12 0.22 0.23 0.21 0.17 0.11 0.10 0.08 0.08 0.09 0.06 0.04 0.04 0.03 0.03 0.03 0.02 0.01 0.01 0.01 0.02 0.03 0.04 0.04 0.04 0.05 0.06
0.01 0.01 0.01 0.01 0.01 0.03 0.03 0.04 0.04 0.04 0.04 0.03 0.02 0.03 0.04 0.08 0.12 0.12 0.10 0.12 0.14 0.11 0.10 0.08 0.08 0.09 0.06 0.04 0.04 0.05 0.04 0.04 0.04 0.03 0.03 0.02 0.02 0.03 0.04 0.05 0.05 0.05 0.07
0.01 0.01 0.01 0.01 0.01 0.02 0.03 0.03 0.04 0.06 0.05 0.04 0.03 0.04 0.05 0.07 0.07 0.06 0.07 0.11 0.13 0.12 0.11 0.11 0.08 0.08 0.06 0.04 0.04 0.04 0.05 0.05 0.05 0.04 0.04 0.03 0.03 0.03 0.03 0.04 0.03 0.03 0.04
0.01 0.01 0.01 0.01 0.01 0.02 0.04 0.05 0.04 0.05 0.06 0.06 0.07 0.08 0.07 0.06 0.05 0.05 0.06 0.11 0.11 0.10 0.11 0.10 0.08 0.09 0.06 0.04 0.04 0.03 0.06 0.06 0.05 0.04 0.02 0.02 0.02 0.03 0.03 0.04 0.03 0.04 0.04
0.00 0.00 0.01 0.01 0.01 0.02 0.03 0.05 0.05 0.04 0.04 0.05 0.05 0.06 0.06 0.05 0.05 0.06 0.10 0.13 0.12 0.10 0.09 0.06 0.05 0.05 0.05 0.05 0.04 0.03 0.03 0.05 0.05 0.04 0.02 0.01 0.01 0.01 0.02 0.03 0.03 0.04 0.06
0.00 0.01 0.01 0.00 0.01 0.02 0.02 0.03 0.05 0.05 0.05 0.05 0.04 0.05 0.05 0.04 0.05 0.09 0.13 0.11 0.08 0.06 0.07 0.06 0.05 0.04 0.03 0.04 0.04 0.03 0.03 0.04 0.05 0.05 0.03 0.01 0.02 0.01 0.02 0.01 0.02 0.03 0.06
0.00 0.01 0.01 0.01 0.01 0.02 0.02 0.03 0.03 0.05 0.07 0.06 0.05 0.05 0.05 0.05 0.06 0.10 0.13 0.08 0.06 0.04 0.05 0.05 0.04 0.03 0.03 0.04 0.03 0.02 0.02 0.02 0.03 0.05 0.04 0.02 0.01 0.01 0.01 0.02 0.02 0.03 0.08
0.01 0.01 0.01 0.01 0.01 0.01 0.02 0.02 0.02 0.03 0.04 0.06 0.06 0.06 0.07 0.08 0.09 0.10 0.10 0.07 0.06 0.06 0.07 0.06 0.05 0.03 0.04 0.04 0.02 0.03 0.03 0.02 0.02 0.03 0.04 0.03 0.02 0.01 0.01 0.02 0.04 0.02 0.02
0.01 0.00 0.00 0.00 0.01 0.01 0.02 0.02 0.03 0.04 0.04 0.04 0.05 0.05 0.06 0.07 0.09 0.11 0.10 0.08 0.08 0.08 0.08 0.06 0.04 0.04 0.03 0.02 0.03 0.03 0.03 0.03 0.02 0.02 0.03 0.04 0.03 0.03 0.02 0.01 0.02 0.02 0.02
0.01 0.00 0.00 0.00 0.01 0.01 0.03 0.03 0.02 0.03 0.05 0.05 0.04 0.05 0.05 0.06 0.09 0.11 0.12 0.10 0.10 0.09 0.09 0.06 0.04 0.05 0.03 0.03 0.04 0.06 0.06 0.06 0.04 0.01 0.02 0.05 0.07 0.05 0.03 0.02 0.03 0.04 0.04
0.01 0.00 0.00 0.01 0.01 0.01 0.03 0.03 0.03 0.03 0.03 0.04 0.05 0.05 0.05 0.04 0.07 0.10 0.11 0.11 0.09 0.07 0.07 0.06 0.05 0.04 0.05 0.05 0.04 0.06 0.06 0.06 0.05 0.03 0.02 0.04 0.06 0.09 0.06 0.04 0.03 0.03 0.02
0.01 0.01 0.01 0.02 0.02 0.02 0.02 0.03 0.05 0.04 0.04 0.04 0.05 0.05 0.05 0.03 0.04 0.05 0.06 0.08 0.05 0.04 0.05 0.05 0.05 0.05 0.06 0.06 0.06 0.06 0.06 0.06 0.06 0.06 0.05 0.04 0.04 0.06 0.08 0.05 0.03 0.03 0.02
0.01 0.01 0.01 0.01 0.01 0.02 0.02 0.04 0.06 0.04 0.06 0.05 0.05 0.07 0.07 0.04 0.03 0.02 0.03 0.04 0.04 0.03 0.04 0.04 0.05 0.04 0.04 0.05 0.05 0.06 0.06 0.07 0.06 0.06 0.07 0.08 0.06 0.04 0.07 0.08 0.06 0.04 0.04
0.01 0.01 0.01 0.01 0.01 0.02 0.02 0.03 0.04 0.04 0.06 0.06 0.05 0.06 0.06 0.05 0.03 0.02 0.02 0.02 0.02 0.03 0.04 0.05 0.05 0.04 0.05 0.04 0.04 0.05 0.07 0.09 0.10 0.10 0.09 0.08 0.07 0.05 0.04 0.07 0.08 0.04 0.04
MSLP
1012.50 1012.02 1011.65 1011.48 1011.53 1011.77 1012.14 1012.56 1012.94 1013.23 1013.44 1013.58 1013.70 1013.84 1014.04 1014.29 1014.58 1014.86 1015.09 1015.23 1015.30 1015.29 1015.26 1015.25 1015.26 1015.32 1015.41 1015.49 1015.54 1015.52 1015.44 1015.30 1015.14 1015.00 1014.91 1014.88 1014.92 1014.99 1015.06 1015.12 1015.13 1015.12 1015.08
1012.49 1012.09 1011.83 1011.76 1011.90 1012.20 1012.59 1012.99 1013.33 1013.57 1013.72 1013.82 1013.92 1014.07 1014.28 1014.55 1014.86 1015.14 1015.36 1015.49 1015.52 1015.50 1015.45 1015.41 1015.42 1015.48 1015.56 1015.63 1015.64 1015.59 1015.45 1015.27 1015.06 1014.89 1014.77 1014.73 1014.75 1014.83 1014.91 1014.98 1015.01 1015.01 1014.99
1012.45 1012.15 1012.01 1012.07 1012.31 1012.68 1013.10 1013.49 1013.79 1013.97 1014.07 1014.12 1014.18 1014.30 1014.50 1014.76 1015.04 1015.30 1015.49 1015.58 1015.59 1015.54 1015.48 1015.45 1015.46 1015.52 1015.60 1015.65 1015.63 1015.53 1015.35 1015.11 1014.85 1014.63 1014.49 1014.43 1014.45 1014.53 1014.64 1014.73 1014.79 1014.82 1014.84
1012.42 1012.23 1012.22 1012.40 1012.75 1013.20 1013.65 1014.04 1014.30 1014.44 1014.48 1014.47 1014.48 1014.56 1014.72 1014.94 1015.17 1015.38 1015.52 1015.57 1015.55 1015.48 1015.41 1015.39 1015.41 1015.47 1015.54 1015.57 1015.52 1015.37 1015.13 1014.83 1014.53 1014.27 1014.11 1014.04 1014.07 1014.16 1014.29 1014.41 1014.52 1014.60 1014.67
1012.43 1012.35 1012.46 1012.77 1013.21 1013.72 1014.20 1014.58 1014.82 1014.92 1014.91 1014.86 1014.82 1014.86 1014.97 1015.13 1015.31 1015.45 1015.53 1015.53 1015.47 1015.38 1015.30 1015.28 1015.30 1015.36 1015.42 1015.41 1015.32 1015.13 1014.83 1014.49 1014.15 1013.88 1013.70 1013.64 1013.68 1013.80 1013.96 1014.12 1014.27 1014.40 1014.53
1012.50 1012.52 1012.73 1013.12 1013.64 1014.19 1014.69 1015.07 1015.29 1015.35 1015.31 1015.23 1015.17 1015.16 1015.23 1015.34 1015.46 1015.54 1015.55 1015.50 1015.39 1015.27 1015.19 1015.15 1015.17 1015.22 1015.25 1015.21 1015.08 1014.84 1014.51 1014.14 1013.79 1013.51 1013.35 1013.32 1013.39 1013.54 1013.73 1013.93 1014.11 1014.28 1014.44
1012.64 1012.72 1012.99 1013.43 1013.98 1014.55 1015.05 1015.42 1015.62 1015.67 1015.61 1015.52 1015.45 1015.43 1015.47 1015.55 1015.61 1015.64 1015.59 1015.48 1015.33 1015.18 1015.07 1015.02 1015.02 1015.05 1015.05 1014.98 1014.81 1014.54 1014.20 1013.83 1013.50 1013.26 1013.14 1013.16 1013.28 1013.47 1013.68 1013.90 1014.09 1014.27 1014.45
1012.80 1012.91 1013.20 1013.66 1014.21 1014.77 1015.25 1015.59 1015.77 1015.81 1015.76 1015.68 1015.62 1015.61 1015.64 1015.69 1015.73 1015.70 1015.60 1015.44 1015.25 1015.07 1014.93 1014.86 1014.84 1014.84 1014.82 1014.73 1014.55 1014.28 1013.95 1013.62 1013.35 1013.18 1013.13 1013.22 1013.39 1013.62 1013.86 1014.08 1014.26 1014.41 1014.55
1012.96 1013.07 1013.36 1013.80 1014.32 1014.83 1015.26 1015.57 1015.73 1015.76 1015.72 1015.67 1015.63 1015.64 1015.68 1015.73 1015.73 1015.67 1015.53 1015.33 1015.10 1014.89 1014.73 1014.64 1014.61 1014.60 1014.56 1014.47 1014.30 1014.07 1013.79 1013.54 1013.35 1013.28 1013.34 1013.51 1013.75 1014.01 1014.26 1014.46 1014.59 1014.69 1014.76
1013.08 1013.19 1013.46 1013.86 1014.32 1014.77 1015.14 1015.40 1015.53 1015.55 1015.52 1015.49 1015.48 1015.52 1015.57 1015.61 1015.60 1015.51 1015.33 1015.10 1014.85 1014.62 1014.45 1014.35 1014.32 1014.31 1014.29 1014.23 1014.11 1013.93 1013.74 1013.59 1013.52 1013.57 1013.73 1013.99 1014.29 1014.59 1014.83 1015.00 1015.07 1015.08 1015.06
1013.15 1013.26 1013.51 1013.86 1014.27 1014.65 1014.95 1015.15 1015.23 1015.24 1015.21 1015.19 1015.20 1015.25 1015.30 1015.34 1015.31 1015.20 1015.01 1014.75 1014.49 1014.26 1014.09 1014.01 1014.00 1014.03 1014.05 1014.05 1014.00 1013.91 1013.82 1013.78 1013.83 1013.99 1014.26 1014.59 1014.95 1015.27 1015.50 1015.62 1015.63 1015.55 1015.43
1013.17 1013.29 1013.52 1013.85 1014.19 1014.51 1014.75 1014.88 1014.92 1014.90 1014.86 1014.83 1014.85 1014.89 1014.94 1014.96 1014.92 1014.79 1014.58 1014.33 1014.07 1013.85 1013.72 1013.68 1013.71 1013.80 1013.90 1013.97 1014.01 1014.02 1014.04 1014.11 1014.26 1014.51 1014.86 1015.25 1015.64 1015.97 1016.19 1016.27 1016.22 1016.06 1015.85
1013.13 1013.27 1013.51 1013.82 1014.13 1014.40 1014.58 1014.66 1014.66 1014.60 1014.53 1014.49 1014.48 1014.51 1014.54 1014.54 1014.48 1014.35 1014.14 1013.90 1013.67 1013.50 1013.41 1013.44 1013.54 1013.71 1013.89 1014.06 1014.19 1014.30 1014.41 1014.56 1014.78 1015.09 1015.47 1015.89 1016.29 1016.61 1016.81 1016.87 1016.78 1016.57 1016.31
1013.03 1013.21 1013.48 1013.78 1014.08 1014.32 1014.46 1014.50 1014.46 1014.37 1014.26 1014.19 1014.16 1014.16 1014.17 1014.16 1014.09 1013.96 1013.78 1013.57 1013.39 1013.28 1013.27 1013.37 1013.56 1013.82 1014.09 1014.35 1014.57 1014.75 1014.93 1015.13 1015.37 1015.69 1016.06 1016.46 1016.84 1017.14 1017.33 1017.37 1017.27 1017.06 1016.78
1012.87 1013.10 1013.40 1013.72 1014.02 1014.24 1014.37 1014.38 1014.32 1014.20 1014.07 1013.97 1013.91 1013.89 1013.89 1013.87 1013.81 1013.71 1013.56 1013.41 1013.30 1013.26 1013.33 1013.52 1013.80 1014.14 1014.50 1014.84 1015.13 1015.36 1015.57 1015.77 1016.00 1016.28 1016.60 1016.95 1017.28 1017.54 1017.72 1017.76 1017.68 1017.50 1017.24
1012.66 1012.92 1013.24 1013.58 1013.89 1014.12 1014.25 1014.26 1014.19 1014.06 1013.93 1013.81 1013.74 1013.71 1013.71 1013.70 1013.67 1013.61 1013.53 1013.46 1013.43 1013.48 1013.63 1013.90 1014.26 1014.67 1015.10 1015.49 1015.82 1016.08 1016.29 1016.47 1016.65 1016.85 1017.09 1017.36 1017.61 1017.84 1017.99 1018.05 1018.01 1017.88 1017.68
1012.38 1012.66 1013.00 1013.35 1013.67 1013.92 1014.06 1014.10 1014.04 1013.93 1013.80 1013.69 1013.62 1013.60 1013.61 1013.64 1013.66 1013.67 1013.66 1013.67 1013.73 1013.86 1014.09 1014.42 1014.84 1015.30 1015.77 1016.20 1016.56 1016.83 1017.03 1017.17 1017.28 1017.40 1017.54 1017.71 1017.89 1018.06 1018.19 1018.27 1018.28 1018.22 1018.09
1012.05 1012.32 1012.65 1013.00 1013.34 1013.60 1013.78 1013.85 1013.83 1013.75 1013.65 1013.56 1013.51 1013.52 1013.56 1013.64 1013.72 1013.80 1013.89 1013.99 1014.12 1014.33 1014.62 1014.99 1015.44 1015.93 1016.42 1016.86 1017.23 1017.51 1017.69 1017.80 1017.86 1017.91 1017.96 1018.04 1018.14 1018.25 1018.37 1018.46 1018.51 1018.51 1018.46
1011.64 1011.89 1012.20 1012.55 1012.89 1013.18 1013.40 1013.52 1013.55 1013.52 1013.46 1013.41 1013.40 1013.43 1013.52 1013.65 1013.79 1013.95 1014.12 1014.30 1014.51 1014.76 1015.09 1015.48 1015.93 1016.41 1016.90 1017.35 1017.73 1018.02 1018.21 1018.32 1018.36 1018.36 1018.36 1018.37 1018.40 1018.47 1018.55 1018.64 1018.72 1018.78 1018.79
1011.17 1011.38 1011.67 1012.01 1012.36 1012.69 1012.95 1013.13 1013.23 1013.25 1013.25 1013.24 1013.25 1013.32 1013.44 1013.61 1013.82 1014.05 1014.28 1014.52 1014.78 1015.07 1015.40 1015.78 1016.21 1016.68 1017.15 1017.60 1017.99 1018.30 1018.53 1018.66 1018.72 1018.73 1018.70 1018.69 1018.68 1018.71 1018.77 1018.85 1018.95 1019.03 1019.08
1010.62 1010.81 1011.08 1011.41 1011.78 1012.15 1012.47 1012.72 1012.88 1012.97 1013.01 1013.04 1013.08 1013.17 1013.32 1013.52 1013.76 1014.03 1014.32 1014.61 1014.90 1015.20 1015.52 1015.87 1016.25 1016.68 1017.12 1017.56 1017.96 1018.32 1018.60 1018.80 1018.92 1018.97 1018.98 1018.97 1018.96 1018.98 1019.02 1019.09 1019.17 1019.27 1019.34
1009.97 1010.16 1010.43 1010.78 1011.18 1011.59 1011.98 1012.30 1012.53 1012.69 1012.77 1012.83 1012.89 1012.98 1013.13 1013.34 1013.60 1013.90 1014.22 1014.54 1014.84 1015.14 1015.43 1015.73 1016.07 1016.43 1016.83 1017.25 1017.67 1018.07 1018.43 1018.72 1018.93 1019.08 1019.16 1019.19 1019.21 1019.22 1019.26 1019.32 1019.40 1019.49 1019.58
1009.20 1009.41 1009.71 1010.09 1010.54 1011.02 1011.47 1011.87 1012.17 1012.39 1012.51 1012.59 1012.65 1012.73 1012.87 1013.08 1013.35 1013.66 1014.00 1014.33 1014.65 1014.93 1015.19 1015.44 1015.71 1016.01 1016.35 1016.74 1017.17 1017.61 1018.04 1018.42 1018.75 1019.00 1019.18 1019.29 1019.36 1019.41 1019.45 1019.51 1019.59 1019.68 1019.77
1008.31 1008.57 1008.91 1009.34 1009.85 1010.39 1010.91 1011.38 1011.76 1012.02 1012.19 1012.28 1012.34 1012.42 1012.54 1012.74 1013.01 1013.33 1013.69 1014.04 1014.36 1014.64 1014.87 1015.08 1015.28 1015.51 1015.79 1016.13 1016.54 1017.00 1017.48 1017.95 1018.38 1018.74 1019.02 1019.23 1019.37 1019.46 1019.54 1019.61 1019.70 1019.81 1019.92
1007.30 1007.62 1008.01 1008.50 1009.06 1009.66 1010.25 1010.78 1011.22 1011.54 1011.74 1011.85 1011.92 1011.99 1012.11 1012.31 1012.59 1012.93 1013.32 1013.70 1014.04 1014.33 1014.55 1014.72 1014.87 1015.03 1015.24 1015.52 1015.89 1016.33 1016.83 1017.35 1017.86 1018.31 1018.69 1018.98 1019.20 1019.36 1019.49 1019.60 1019.72 1019.85 1019.99
1006.21 1006.58 1007.01 1007.54 1008.14 1008.79 1009.43 1010.02 1010.51 1010.88 1011.12 1011.26 1011.35 1011.44 1011.57 1011.79 1012.09 1012.48 1012.91 1013.34 1013.73 1014.04 1014.27 1014.43 1014.53 1014.63 1014.77 1014.98 1015.28 1015.69 1016.17 1016.70 1017.24 1017.75 1018.20 1018.57 1018.86 1019.09 1019.27 1019.44 1019.60 1019.78 1019.97
Thickness
5791 5791 5785 5784 5784 5784 5782 5781 5780 5779 5778 5777 5776 5775 5774 5774 5773 5772 5771 5770 5769 5768 5768 5767 5766 5765 5764 5764 5763 5762 5761 5760 5759 5758 5757 5756 5755 5754 5753 5753 5753 5753 5750
5794 5791 5784 5783 5782 5781 5780 5780 5779 5777 5777 5776 5775 5773 5773 5773 5772 5772 5771 5769 5769 5768 5767 5766 5765 5764 5764 5763 5763 5762 5761 5760 5759 5758 5757 5756 5754 5753 5753 5753 5753 5752 5750
5794 5790 5785 5782 5781 5780 5779 5778 5777 5776 5776 5775 5774 5773 5772 5772 5771 5771 5770 5769 5768 5767 5766 5765 5764 5764 5763 5763 5762 5761 5760 5759 5758 5758 5758 5760 5756 5753 5752 5751 5751 5749 5748
5794 5790 5786 5781 5780 5779 5778 5777 5776 5775 5775 5774 5773 5773 5772 5771 5771 5770 5770 5769 5768 5767 5765 5764 5764 5763 5762 5762 5761 5760 5759 5759 5758 5759 5762 5763 5759 5753 5751 5750 5750 5749 5748
5793 5789 5784 5781 5779 5778 5777 5776 5775 5774 5774 5773 5773 5772 5772 5771 5770 5770 5769 5768 5767 5766 5765 5764 5763 5762 5762 5761 5761 5760 5759 5759 5759 5761 5764 5762 5759 5754 5752 5750 5749 5748 5747
5793 5790 5784 5780 5778 5776 5775 5774 5774 5773 5773 5772 5772 5771 5771 5770 5769 5769 5769 5767 5766 5766 5765 5764 5763 5762 5762 5761 5760 5759 5759 5759 5760 5765 5764 5763 5760 5754 5752 5750 5749 5748 5747
5793 5790 5785 5779 5777 5776 5775 5774 5773 5773 5772 5772 5771 5771 5770 5770 5769 5768 5768 5767 5766 5765 5764 5764 5763 5762 5761 5760 5760 5759 5759 5759 5763 5765 5764 5763 5759 5754 5752 5750 5749 5747 5746
5793 5790 5785 5779 5777 5776 5775 5774 5773 5772 5772 5771 5771 5770 5770 5769 5768 5767 5767 5766 5765 5764 5764 5763 5763 5762 5761 5760 5759 5759 5759 5759 5763 5765 5764 5762 5757 5754 5752 5750 5749 5747 5746
5793 5791 5788 5784 5780 5777 5775 5774 5773 5772 5772 5771 5771 5770 5770 5769 5768 5767 5766 5765 5764 5764 5763 5763 5762 5762 5761 5760 5759 5759 5759 5760 5763 5764 5764 5761 5755 5753 5751 5750 5748 5747 5746
5792 5791 5789 5786 5784 5782 5779 5776 5774 5773 5772 5772 5771 5770 5769 5768 5767 5767 5766 5765 5764 5764 5763 5763 5762 5762 5761 5760 5759 5759 5759 5760 5764 5765 5764 5760 5755 5753 5751 5750 5748 5747 5745
5790 5791 5790 5788 5786 5784 5783 5778 5776 5774 5773 5773 5772 5771 5770 5771 5770 5769 5767 5765 5764 5764 5764 5763 5763 5762 5761 5761 5760 5760 5760 5764 5765 5765 5763 5757 5754 5752 5751 5749 5748 5746 5745
5789 5790 5790 5789 5787 5786 5784 5781 5779 5779 5776 5775 5774 5773 5772 5771 5771 5770 5766 5766 5765 5764 5764 5764 5763 5763 5764 5765 5763 5762 5764 5765 5765 5765 5761 5755 5753 5752 5750 5749 5747 5746 5745
5794 5792 5792 5790 5787 5786 5784 5782 5781 5780 5777 5777 5775 5773 5772 5772 5772 5772 5770 5768 5767 5766 5767 5766 5766 5767 5767 5766 5765 5765 5765 5765 5765 5764 5759 5755 5753 5751 5750 5749 5747 5746 5744
5795 5793 5793 5790 5788 5785 5784 5783 5781 5781 5779 5778 5775 5775 5774 5774 5773 5773 5771 5770 5769 5769 5767 5768 5767 5766 5766 5765 5765 5764 5764 5764 5763 5761 5757 5754 5752 5751 5750 5748 5747 5745 5744
5796 5794 5793 5791 5787 5784 5782 5782 5782 5781 5780 5778 5776 5775 5774 5775 5774 5773 5770 5769 5770 5769 5768 5767 5767 5766 5765 5765 5765 5764 5763 5762 5761 5761 5758 5754 5752 5751 5750 5748 5747 5745 5744
5797 5796 5795 5791 5787 5784 5782 5782 5782 5781 5778 5779 5777 5775 5774 5774 5773 5771 5770 5769 5769 5768 5768 5767 5767 5766 5765 5765 5764 5763 5762 5762 5760 5760 5759 5756 5752 5751 5749 5748 5747 5746 5744
5800 5798 5795 5792 5789 5785 5784 5783 5782 5781 5781 5779 5777 5774 5773 5773 5771 5770 5770 5770 5769 5768 5767 5767 5767 5766 5765 5765 5764 5763 5763 5761 5761 5760 5760 5759 5756 5752 5750 5748 5747 5746 5745
5803 5798 5795 5795 5790 5786 5784 5783 5783 5782 5780 5778 5777 5775 5772 5771 5771 5770 5771 5771 5768 5769 5769 5768 5768 5766 5765 5764 5764 5764 5763 5761 5760 5759 5760 5759 5757 5756 5751 5748 5747 5745 5744
5804 5800 5795 5794 5791 5788 5785 5782 5782 5780 5778 5778 5776 5775 5773 5772 5771 5771 5770 5769 5769 5770 5770 5769 5767 5766 5764 5763 5763 5763 5763 5762 5761 5761 5759 5758 5757 5755 5753 5749 5746 5745 5743
5807 5802 5798 5794 5791 5788 5785 5782 5780 5779 5778 5777 5776 5775 5773 5772 5771 5771 5770 5768 5770 5770 5768 5767 5764 5763 5763 5763 5764 5763 5762 5762 5761 5760 5760 5759 5757 5755 5754 5751 5749 5746 5743
5808 5803 5799 5795 5792 5788 5785 5783 5779 5777 5777 5777 5776 5774 5772 5771 5770 5770 5771 5768 5768 5768 5766 5765 5764 5762 5762 5763 5761 5759 5760 5762 5761 5759 5759 5758 5757 5755 5753 5751 5750 5749 5746
5810 5805 5801 5797 5794 5790 5788 5784 5782 5780 5778 5777 5775 5772 5771 5770 5770 5771 5768 5769 5768 5766 5764 5763 5761 5761 5762 5762 5760 5756 5753 5753 5756 5760 5758 5756 5756 5755 5754 5752 5749 5746 5746
5812 5808 5805 5800 5796 5792 5789 5786 5783 5779 5777 5775 5773 5771 5770 5769 5769 5769 5767 5767 5765 5766 5764 5761 5760 5758 5757 5759 5760 5756 5751 5749 5752 5755 5755 5754 5753 5752 5752 5750 5748 5746 5744
5816 5813 5807 5802 5798 5794 5790 5787 5782 5778 5775 5774 5773 5772 5770 5768 5768 5768 5766 5765 5764 5765 5762 5762 5761 5759 5756 5755 5756 5756 5755 5754 5749 5747 5751 5753 5751 5750 5750 5749 5748 5745 5743
5820 5815 5809 5803 5798 5795 5791 5787 5782 5780 5778 5777 5774 5771 5769 5769 5767 5767 5765 5764 5762 5762 5761 5759 5758 5757 5757 5755 5754 5754 5752 5751 5751 5747 5744 5745 5747 5748 5747 5746 5745 5744 5742
5821 5817 5811 5804 5798 5795 5791 5788 5783 5780 5777 5775 5772 5770 5769 5769 5767 5766 5764 5762 5761 5760 5758 5757 5756 5755 5755 5753 5753 5753 5751 5749 5747 5746 5743 5741 5742 5744 5744 5743 5743 5742 5740